Location: Island Grove Observatory.
(44.2333°N, 79.4500°W)
Time: 11:39:34
(UTC-05:00)

N. Korean satellite - Pass Details

Date: 07 December 2021
Orbit: 447 x 491 km, 97.3° (Epoch: 23 January)

Event Time Altitude Azimuth Distance (km) Brightness Sun altitude
Rises 04:41:31 0° 29° (NNE) 2,459 10.5 -31.1°
Reaches altitude 10° 04:44:06 10° 51° (NE) 1,580 9.7 -30.6°
Maximum altitude 04:46:21 17° 93° (E) 1,226 9.4 -30.2°
Drops below altitude 10° 04:48:36 10° 135° (SE) 1,572 9.7 -29.8°
Sets 04:51:10 0° 157° (SSE) 2,441 10.5 -29.3°
